Location: Oshawa
(43.9000°N, 78.8670°W)
Time: 09:50:50
(UTC-04:00)

PAYLOAD A - Visible Passes

Search period start: 27 September 2016 00:00
Search period end: 07 October 2016 00:00
Orbit: 692 x 832 km, 98.2° (Epoch: 26 September)

Date Brightness Start Highest point End Pass type
(mag) Time Alt. Az. Time Alt. Az. Time Alt. Az.
27 Sep 7.6 20:13:50 10° WSW 20:15:45 12° W 20:17:39 10° WNW visible
28 Sep 6.5 06:38:50 10° NE 06:42:59 27° E 06:47:00 10° SSE visible
28 Sep 6.7 19:33:15 10° SSW 19:37:42 26° W 19:42:07 10° NW visible
29 Sep 7.4 06:03:12 10° ENE 06:04:54 12° E 06:06:34 10° ESE visible
30 Sep 7.3 19:58:28 10° SW 20:01:40 16° W 20:04:49 10° NW visible
01 Oct 6.9 06:25:20 10° NE 06:28:53 20° E 06:32:20 10° SE visible
01 Oct 6.2 19:18:53 10° SSW 19:23:42 33° W 19:28:27 10° NNW visible
03 Oct 7.0 19:43:40 10° SW 19:47:36 21° W 19:51:30 10° NW visible
04 Oct 7.2 06:12:06 10° NE 06:14:45 15° E 06:17:20 10° ESE visible
05 Oct 7.5 20:09:30 10° WSW 20:11:35 12° W 20:13:40 10° WNW visible
06 Oct 6.5 06:34:46 10° NE 06:38:40 24° E 06:42:30 10° SSE visible
06 Oct 6.6 19:29:07 10° SSW 19:33:34 27° W 19:37:56 10° NW visible
